Weather History for Laramie, WY

Change the Weather History Date:

Thursday, April 18, 2013

  Actual Average Record
Temperature  
Mean Temperature 10 °F 38 °F  
Max Temperature 23 °F 52 °F 72 °F (1981)
Min Temperature -3 °F 25 °F -3 °F (2013)
Degree Days  
Heating Degree Days 55 27  
Month to date heating degree days 640 521  
Since 1 July heating degree days 7605 7756  
Cooling Degree Days 0 0  
Month to date cooling degree days 0 0  
Year to date cooling degree days 0 0  
Moisture  
Dew Point 6 °F    
Average Humidity 76    
Maximum Humidity 95    
Minimum Humidity 56    
Precipitation  
Precipitation 0.00 in 0.03 in 0.49 in (2011)
Month to date precipitation 0.46 0.56  
Year to date precipitation 1.37 1.75  
Sea Level Pressure  
Sea Level Pressure 30.20 in    
Wind  
Wind Speed 16 mph (NW)    
Max Wind Speed 32 mph    
Max Gust Speed 38 mph    
Visibility 9 miles    
Events Snow    
T = Trace of Precipitation, MM = Missing Value Source: NWS Daily Summary

Daily Weather History Graph

Daily Weather History Graph

Search for Another Location

Airport:

Trip Planner

Search our weather history database for the weather conditions in past years. The results will help you decide how hot, cold, wet, or windy it might be!

Date:

Astronomy

Apr. 18, 2013 Rise Set
Actual Time 6:18 AM MDT 7:46 PM MDT
Civil Twilight 5:49 AM MDT 8:15 PM MDT
Nautical Twilight 5:14 AM MDT 8:50 PM MDT
Astronomical Twilight 4:37 AM MDT 9:27 PM MDT
Moon 12:31 PM MDT (4/18) 2:03 AM MDT (4/18)
Length of Visible Light 14h 26m
Length of Day
13h 28m
First Quarter, 52% of the Moon is Illuminated
Apr 18
First Quarter
Apr 25
Full
May 2
Last Quarter
May 9
New
May 17
First Quarter

Hourly Weather History & Observations

Time (MDT) Temp. Windchill Dew Point Humidity Pressure Visibility Wind Dir Wind Speed Gust Speed Precip Events Conditions
12:07 AM 8.6 °F -7.0 °F 6.8 °F 92% 30.03 in 3.0 mi NW 12.7 mph - 0.00 in Snow Light Snow
12:51 AM 6.8 °F -8.6 °F 3.2 °F 85% 30.03 in 6.0 mi NW 11.5 mph - 0.00 in   Overcast
12:53 AM 6.1 °F -9.5 °F 3.9 °F 91% 30.25 in 7.0 mi NW 11.5 mph - 0.00 in   Overcast
1:17 AM 5.0 °F -10.8 °F 1.4 °F 85% 30.02 in 4.0 mi NW 11.5 mph - N/A   Mostly Cloudy
1:49 AM 3.2 °F -12.2 °F 1.4 °F 92% 30.02 in 4.0 mi NW 10.4 mph - N/A   Overcast
1:53 AM 3.0 °F -11.5 °F 1.0 °F 91% 30.25 in 5.0 mi NW 9.2 mph - N/A   Overcast
2:12 AM 1.4 °F -15.3 °F -0.4 °F 92% 30.01 in 10.0 mi NW 11.5 mph - N/A   Scattered Clouds
2:53 AM 1.9 °F -11.8 °F -0.9 °F 88% 30.24 in 10.0 mi NNW 8.1 mph - N/A   Clear
3:53 AM 1.0 °F -12.9 °F -2.0 °F 87% 30.24 in 10.0 mi NW 8.1 mph - N/A   Mostly Cloudy
4:53 AM 3.9 °F -5.3 °F 1.0 °F 88% 30.21 in 10.0 mi NNW 4.6 mph - N/A   Overcast
5:53 AM 3.9 °F -8.2 °F -0.0 °F 84% 30.22 in 10.0 mi NW 6.9 mph - N/A   Scattered Clouds
6:22 AM 5.0 °F -10.0 °F -0.4 °F 78% 30.00 in 10.0 mi NW 10.4 mph - N/A   Mostly Cloudy
6:53 AM 3.9 °F -10.4 °F -0.9 °F 80% 30.24 in 10.0 mi NW 9.2 mph - N/A   Mostly Cloudy
7:53 AM 10.0 °F -8.6 °F 3.9 °F 76% 30.22 in 10.0 mi NW 19.6 mph - N/A   Mostly Cloudy
8:53 AM 12.9 °F -3.9 °F 7.0 °F 77% 30.21 in 10.0 mi NW 17.3 mph - N/A   Mostly Cloudy
9:53 AM 15.1 °F -2.9 °F 9.0 °F 77% 30.22 in 10.0 mi NW 21.9 mph - N/A   Mostly Cloudy
10:53 AM 16.0 °F -3.8 °F 9.0 °F 74% 30.21 in 7.0 mi NW 28.8 mph 33.4 mph N/A   Clear
11:53 AM 18.0 °F -1.4 °F 10.0 °F 71% 30.20 in - NW 29.9 mph 36.8 mph N/A   Clear
12:53 PM 19.0 °F 1.6 °F 10.0 °F 68% 30.23 in - NW 24.2 mph - N/A   Clear
1:53 PM 21.0 °F 3.9 °F 10.0 °F 63% 30.23 in 10.0 mi NW 25.3 mph 31.1 mph N/A   Clear
2:53 PM 23.0 °F 6.3 °F 12.9 °F 65% 30.22 in - NW 26.5 mph - N/A   Clear
3:53 PM 23.0 °F 6.6 °F 12.0 °F 63% 30.25 in 10.0 mi NNW 25.3 mph 29.9 mph N/A   Clear
4:53 PM 23.0 °F 7.6 °F 12.0 °F 63% 30.25 in - NW 21.9 mph - N/A   Clear
5:53 PM 21.9 °F 7.8 °F 12.9 °F 68% 30.26 in 10.0 mi NW 17.3 mph - N/A   Clear
6:53 PM 19.9 °F 7.9 °F 10.0 °F 65% 30.28 in - NW 11.5 mph - N/A   Clear
7:53 PM 16.0 °F 1.7 °F 7.0 °F 68% 30.28 in 10.0 mi NW 13.8 mph - N/A   Clear
8:53 PM 17.1 °F 6.6 °F 5.0 °F 59% 30.28 in - WNW 8.1 mph - N/A   Mostly Cloudy
9:53 PM 14.0 °F 3.9 °F 5.0 °F 67% 30.27 in 10.0 mi WSW 6.9 mph - N/A   Overcast
10:53 PM 14.0 °F 5.1 °F 7.0 °F 74% 30.26 in 10.0 mi WSW 5.8 mph - N/A   Partly Cloudy
11:53 PM 18.0 °F 6.1 °F 10.9 °F 74% 30.23 in 10.0 mi West 10.4 mph - N/A   Overcast